[[{"header":{"parameterUnit":"m.s-1","parameterCategory":1,"la1":30.2991,"la2":30.254,"lo1":-89.0895,"lo2":-89.0444,"dy":0.0017,"dx":0.0017,"nx":28,"ny":28,"refTime":"2025-12-21T09:00:00:Z","depth":0,"parameterNumber":2,"parameterNumberName":"U-component_of_WINDS"},"data":[0,0,0,0,0,0,0,0,0,0,0,0,0,0,0,0,0,0,0,0,0,0,0,0,0,0,0,0,0,0,0,0,0,0,0,0,0,0,0,0,0,0,0,0,0,0,0,0,0,0,0,0,0,0,0,0,0,0,-4.9197,-4.9197,0,-4.9246,-4.9246,-4.9247,-4.9184,-4.9181,-4.9179,-4.9177,-4.9226,-4.923,-4.9233,0,0,0,0,0,0,0,0,0,0,0,0,0,-4.9052,-4.9055,-4.9197,-4.9197,-4.9198,-4.9246,-4.9246,-4.9247,-4.9184,-4.9181,-4.9179,-4.9176,-4.9225,-4.9229,-4.9233,0,0,0,0,0,0,0,0,0,0,0,0,0,-4.9109,-4.9056,-4.9197,-4.9172,-4.9171,-4.9246,-4.9246,-4.9247,-4.9185,-4.9181,-4.9178,-4.9175,-4.9224,-4.9229,-4.9234,-4.9335,0,0,-4.925,-4.9252,0,0,0,0,0,0,0,0,-4.9106,-4.9115,-4.9175,-4.9174,-4.9173,-4.9205,-4.9213,-4.9276,-4.9186,-4.9179,-4.9177,-4.9173,-4.9222,-4.9227,-4.9244,-4.9337,-4.9339,-4.925,-4.9253,-4.9256,-4.9257,0,0,0,0,0,0,0,-4.9102,-4.9112,-4.9216,-4.9176,-4.9175,-4.916,-4.9164,-4.9225,-4.9219,-4.918,-4.9175,-4.9182,-4.9221,-4.9239,-4.9244,-4.934,-4.925,-4.9255,-4.9258,-4.926,-4.9522,-4.9526,0,0,0,0,0,0,-4.9101,-4.9109,-4.9215,-4.9218,-4.913,-4.9166,-4.917,-4.9198,-4.9218,-4.9218,-4.9185,-4.9179,-4.9232,-4.9239,-4.9246,-4.9367,-4.9256,-4.926,-4.9263,-4.9518,-4.9523,-4.9527,0,0,0,0,0,0,-4.9098,-4.9111,-4.9213,-4.9162,-4.9174,-4.9172,-4.9203,-4.9201,-4.9219,-4.9222,-4.9221,-4.9204,-4.9229,-4.9239,-4.9314,-4.9367,-4.9263,-4.9267,-4.9514,-4.952,-4.9525,-4.9608,0,0,0,0,0,0,-4.9094,-4.911,-4.9147,-4.9164,-4.9177,-4.9279,-4.9207,-4.9204,-4.9228,-4.9221,-4.924,-4.924,-4.9227,-4.9307,-4.9319,-4.9373,-4.9271,-4.9509,-4.9517,-4.9523,-4.96,-4.9616,-4.9629,0,0,0,0,0,-4.9089,-4.9167,-4.9149,-4.9162,-4.9223,-4.9282,-4.929,-4.9273,-4.9233,-4.9271,-4.9274,-4.924,-4.9361,-4.9315,-4.9328,-4.9384,-4.9505,-4.9514,-4.9523,-4.9594,-4.9613,-4.9629,0,0,0,0,0,0,-4.9155,-4.9169,-4.9149,-4.9235,-4.9258,-4.9271,-4.9318,-4.9293,-4.9328,-4.9319,-4.9298,-4.9303,-4.9384,-4.9392,-4.9341,-4.9485,-4.9426,-4.9438,-4.9476,-4.9494,-4.9508,-4.9503,-4.9276,0,0,0,0,0,-4.9181,-4.9227,-4.9236,-4.9311,-4.9324,-4.932,-4.9344,-4.9331,-4.9353,-4.9363,-4.9371,-4.9395,-4.9438,-4.9467,-4.9507,-4.9603,-4.9607,-4.9649,-4.9663,-4.9675,-4.9684,-4.9738,-4.9757,-4.9556,-4.9556,-4.9556,0,0,-4.9231,-4.9245,-4.9275,-4.9325,-4.9341,-4.9391,-4.9328,-4.9382,-4.9418,-4.9371,-4.9442,-4.945,-4.9476,-4.9563,-4.9601,-4.9572,-4.9742,-4.9686,-4.9695,-4.9698,-4.9749,-4.9768,-4.9785,-4.9562,-4.9561,-4.956,0,0,-4.9349,-4.9364,-4.9429,-4.9448,-4.9475,-4.9472,-4.9488,-4.9507,-4.951,-4.9583,-4.9549,-4.9594,-4.9668,-4.9689,-4.9709,-4.9842,-4.9813,-4.9856,-4.993,-4.9983,-4.9999,-5.0013,-5.0061,-5.0078,-4.9866,-4.9867,-4.9867,0,-4.9409,-4.9481,-4.9465,-4.9523,-4.9547,-4.9509,-4.9576,-4.9595,-4.9634,-4.9652,-4.9619,-4.9715,-4.9729,-4.9822,-4.9855,-4.9873,-4.9891,-4.9852,-4.9998,-5.0012,-5.0025,-5.007,-5.0088,-4.9872,-4.9871,-4.9871,-4.987,0,-4.9554,-4.9606,-4.9655,-4.9695,-4.9725,-4.9787,-4.9782,-4.9815,-4.9801,-4.9803,-4.9879,-4.9896,-4.994,-4.9962,-4.9947,-5.0054,-5.0035,-5.0001,-4.9941,-5.0049,-5.0092,-5.0109,-4.9879,-4.9877,-4.9876,-4.9874,0,0,-4.9709,-4.9744,-4.9762,-4.9781,-4.9811,-4.9851,-4.9913,-4.9958,-4.9987,-5.0017,-5.0069,-5.0137,-5.0107,-5.013,-5.0118,-5.0165,-5.0272,-5.0125,-5.0126,-5.0152,-5.0392,-5.0416,-5.0437,-5.0254,-5.0258,-5.026,-5.039,0,-4.9827,-4.9934,-4.9925,-5.0027,-5.0075,-5.0044,-5.0098,-5.0124,-5.0129,-5.0172,-5.0178,-5.0226,-5.0182,-5.0197,-5.0242,-5.0249,-5.0319,-5.024,-5.0303,-5.0305,-5.0295,-5.0459,-5.0483,-5.0604,-5.0406,-5.0409,-5.0411,0,-4.9977,-5.0014,-5.0121,-5.0148,-5.0168,-5.0217,-5.026,-5.0301,-5.0331,-5.0332,-5.0361,-5.0343,-5.0408,-5.035,-5.044,-5.0387,-5.0413,-5.0421,-5.0426,-5.0429,-5.0363,-5.0465,-5.0643,-5.066,-5.0437,-5.0435,-5.0433,0,-5.0079,-5.0156,-5.0231,-5.0249,-5.0281,-5.0317,-5.0332,-5.0359,-5.0388,-5.0426,-5.0445,-5.049,-5.0515,-5.0551,-5.0547,-5.0505,-5.064,-5.058,-5.0642,-5.0643,-5.0669,-5.0667,-5.0852,-5.0689,-5.0689,-5.0689,-5.0688,0,-5.021,-5.0277,-5.0278,-5.0323,-5.0399,-5.039,-5.0465,-5.0477,-5.0502,-5.055,-5.0527,-5.0573,-5.0566,-5.0613,-5.0611,-5.0687,-5.0698,-5.0701,-5.07,-5.0702,-5.0702,-5.0717,-5.0708,-5.0694,-5.0692,-5.0692,-5.0691,0,-5.0334,-5.0337,-5.0417,-5.0444,-5.0453,-5.0507,-5.053,-5.0575,-5.0581,-5.0643,-5.0657,-5.0666,-5.0721,-5.0722,-5.0784,-5.0783,-5.0876,-5.0866,-5.0866,-5.0863,-5.0925,-5.0919,-5.1124,-5.1151,-5.0973,-5.0975,-5.0976,0,-5.0416,-5.0467,-5.0501,-5.0533,-5.0551,-5.0602,-5.0632,-5.0628,-5.0661,-5.0702,-5.0742,-5.0796,-5.0837,-5.0928,-5.094,-5.0989,-5.0979,-5.1048,-5.0986,-5.0988,-5.0979,-5.0976,-5.0981,-5.1059,-5.1061,-5.1062,-5.1064,0,-5.0561,-5.0562,-5.0607,-5.0655,-5.0693,-5.073,-5.0764,-5.0792,-5.0791,-5.0831,-5.0887,-5.0921,-5.0987,-5.1041,-5.109,-5.1106,-5.1086,-5.1084,-5.1101,-5.1103,-5.1101,-5.1103,-5.0898,-5.1078,-5.1077,-5.1076,-5.1075,-5.1074,-5.0666,-5.0711,-5.0743,-5.0796,-5.0822,-5.0856,-5.0901,-5.0914,-5.0962,-5.1015,-5.1011,-5.1075,-5.1108,-5.1172,-5.1194,-5.1245,-5.122,-5.1245,-5.1251,-5.1256,-5.1263,-5.1096,-5.1254,-5.1253,-5.1253,-5.1252,-5.1252,0,-5.0809,-5.083,-5.0879,-5.0929,-5.0972,-5.0952,-5.099,-5.1027,-5.1084,-5.1117,-5.1161,-5.1228,-5.1282,-5.1302,-5.1355,-5.1392,-5.1384,-5.1406,-5.1402,-5.1407,-5.1281,-5.1261,-5.1412,-5.1412,-5.1412,-5.1411,-5.1411,-5.1411,-5.0889,-5.0965,-5.0971,-5.1062,-5.1082,-5.1145,-5.1169,-5.1202,-5.1229,-5.1305,-5.1351,-5.1364,-5.1393,-5.1449,-5.1498,-5.1503,-5.1523,-5.1549,-5.1549,-5.1431,-5.1415,-5.1399,-5.138,-5.1554,-5.1554,-5.167,-5.1671,-5.1672]},{"header":{"parameterUnit":"m.s-1","parameterCategory":1,"la1":30.2991,"la2":30.254,"lo1":-89.0895,"lo2":-89.0444,"dy":0.0017,"dx":0.0017,"nx":28,"ny":28,"refTime":"2025-12-21T09:00:00:Z","depth":0,"parameterNumber":3,"parameterNumberName":"V-component_of_WINDS"},"data":[0,0,0,0,0,0,0,0,0,0,0,0,0,0,0,0,0,0,0,0,0,0,0,0,0,0,0,0,0,0,0,0,0,0,0,0,0,0,0,0,0,0,0,0,0,0,0,0,0,0,0,0,0,0,0,0,0,0,1.2854,1.2854,0,1.2915,1.2916,1.2916,1.3003,1.3004,1.3006,1.3007,1.3064,1.3065,1.3065,0,0,0,0,0,0,0,0,0,0,0,0,0,1.281,1.281,1.2854,1.2855,1.2855,1.2915,1.2916,1.2916,1.3003,1.3004,1.3006,1.3008,1.3064,1.3065,1.3065,0,0,0,0,0,0,0,0,0,0,0,0,0,1.2845,1.281,1.2854,1.2906,1.2911,1.2915,1.2916,1.2917,1.3002,1.3004,1.3007,1.3009,1.3064,1.3065,1.3065,1.3021,0,0,1.3065,1.3065,0,0,0,0,0,0,0,0,1.2843,1.2847,1.2897,1.2902,1.2908,1.2954,1.2921,1.2951,1.3002,1.2967,1.3007,1.301,1.3025,1.3029,1.3035,1.3024,1.3026,1.3065,1.3065,1.3066,1.3066,0,0,0,0,0,0,0,1.2841,1.2845,1.2878,1.2898,1.2904,1.2925,1.2933,1.2927,1.2983,1.297,1.2977,1.2983,1.3029,1.3035,1.3037,1.3027,1.3065,1.3065,1.3066,1.3066,1.2986,1.2984,0,0,0,0,0,0,1.2831,1.2842,1.2876,1.288,1.2881,1.2924,1.2933,1.2937,1.2983,1.2993,1.2981,1.2987,1.3033,1.3037,1.304,1.2994,1.3066,1.3066,1.3066,1.2988,1.2986,1.2983,0,0,0,0,0,0,1.283,1.2833,1.2873,1.2863,1.287,1.2923,1.2926,1.2937,1.2943,1.2991,1.3001,1.2978,1.3035,1.3039,1.3026,1.2997,1.3066,1.3066,1.2991,1.2988,1.2984,1.2901,0,0,0,0,0,0,1.2828,1.2832,1.2816,1.2862,1.287,1.2859,1.2925,1.2936,1.2944,1.2952,1.2991,1.2999,1.3037,1.3025,1.3026,1.2999,1.3066,1.2994,1.2989,1.2986,1.2906,1.2895,1.2885,0,0,0,0,0,1.2826,1.2788,1.2815,1.2818,1.2851,1.2857,1.2862,1.2908,1.2941,1.2926,1.2957,1.2998,1.3,1.3023,1.3025,1.2997,1.2996,1.2991,1.2986,1.2911,1.2897,1.2885,0,0,0,0,0,0,1.2735,1.2795,1.2825,1.2801,1.2824,1.2872,1.2854,1.2892,1.2904,1.2911,1.2967,1.2975,1.2955,1.2975,1.2999,1.2959,1.3004,1.2999,1.2947,1.2934,1.2924,1.2919,1.3066,0,0,0,0,0,1.2712,1.2714,1.2766,1.2739,1.275,1.28,1.2804,1.2838,1.2863,1.2873,1.2903,1.2925,1.2931,1.2933,1.2941,1.291,1.292,1.2891,1.2881,1.2872,1.2867,1.2855,1.2843,1.2967,1.2967,1.2967,0,0,1.2665,1.2698,1.2695,1.2722,1.2744,1.2744,1.2807,1.2803,1.2804,1.2871,1.2862,1.2886,1.2913,1.2892,1.2884,1.2907,1.2836,1.2866,1.2858,1.2858,1.2848,1.2837,1.2826,1.2963,1.2964,1.2965,0,0,1.2579,1.2604,1.2586,1.2608,1.2641,1.2675,1.2671,1.2715,1.2734,1.2726,1.2778,1.2779,1.2787,1.2806,1.2817,1.2742,1.2781,1.2743,1.2688,1.2675,1.2665,1.2657,1.2632,1.2623,1.2738,1.2738,1.2738,0,1.2516,1.2519,1.2572,1.2567,1.2578,1.2642,1.2625,1.2643,1.2676,1.2682,1.2709,1.2724,1.2747,1.2732,1.2714,1.272,1.2718,1.2739,1.2663,1.2655,1.2648,1.2625,1.2615,1.2733,1.2734,1.2734,1.2735,0,1.244,1.2442,1.2424,1.2458,1.2467,1.2455,1.2506,1.2509,1.2543,1.2574,1.2567,1.2598,1.2614,1.2613,1.2645,1.2604,1.2618,1.2653,1.27,1.2631,1.261,1.2602,1.2726,1.2728,1.2729,1.2731,0,0,1.2297,1.2363,1.2356,1.2374,1.2417,1.2418,1.241,1.243,1.2432,1.2453,1.2448,1.2456,1.249,1.2502,1.2537,1.2526,1.2468,1.2563,1.2564,1.2546,1.2427,1.2401,1.239,1.2494,1.2493,1.2491,1.2425,0,1.222,1.2213,1.2262,1.224,1.2244,1.2307,1.23,1.2326,1.2356,1.2362,1.2395,1.24,1.2444,1.2452,1.2444,1.2477,1.2445,1.2482,1.2491,1.249,1.2483,1.2379,1.2351,1.2287,1.2417,1.2416,1.2415,0,1.213,1.215,1.213,1.2178,1.2181,1.2174,1.2198,1.2203,1.2234,1.2257,1.2272,1.2314,1.231,1.2354,1.235,1.2375,1.2381,1.2398,1.2397,1.24,1.2449,1.2381,1.2268,1.2258,1.2403,1.2404,1.2405,0,1.203,1.2051,1.2043,1.2056,1.2111,1.2105,1.2127,1.2161,1.217,1.219,1.2197,1.2215,1.2225,1.2238,1.2284,1.2312,1.2275,1.2323,1.2294,1.2293,1.2284,1.2284,1.2171,1.2286,1.2286,1.2286,1.2286,0,1.194,1.1925,1.2,1.1994,1.1981,1.2038,1.2022,1.2051,1.2081,1.2082,1.2137,1.2137,1.2197,1.2204,1.2239,1.2232,1.2235,1.2254,1.2264,1.225,1.2247,1.2255,1.2261,1.2284,1.2284,1.2285,1.2285,0,1.1825,1.1874,1.187,1.1924,1.1937,1.1925,1.1971,1.1968,1.2003,1.2004,1.2008,1.2061,1.2073,1.212,1.2141,1.2166,1.2147,1.2165,1.2137,1.2144,1.2113,1.2116,1.2002,1.1991,1.2111,1.211,1.2108,0,1.1765,1.1756,1.181,1.1817,1.1838,1.1846,1.1857,1.1913,1.1923,1.196,1.1953,1.1969,1.1986,1.2001,1.2041,1.2059,1.2079,1.2038,1.2081,1.2069,1.208,1.2081,1.2081,1.2028,1.2027,1.2025,1.2024,0,1.1654,1.168,1.1695,1.1719,1.1732,1.1752,1.1777,1.1778,1.1841,1.1849,1.1863,1.1875,1.19,1.1916,1.1941,1.1963,1.2004,1.2011,1.2005,1.1991,1.1976,1.1986,1.2113,1.2013,1.2014,1.2015,1.2015,1.2016,1.1566,1.1563,1.1601,1.1617,1.1642,1.1664,1.1666,1.1702,1.1715,1.1741,1.1773,1.1784,1.1818,1.1856,1.1876,1.1885,1.1907,1.1899,1.1897,1.1894,1.1888,1.1974,1.1889,1.1889,1.189,1.189,1.189,0,1.146,1.1489,1.1503,1.1537,1.1549,1.159,1.1619,1.1627,1.1636,1.1665,1.1681,1.1699,1.1715,1.1758,1.1779,1.1778,1.1798,1.1782,1.1783,1.1788,1.1866,1.1869,1.1766,1.1766,1.1766,1.1766,1.1766,1.1766,1.1406,1.1403,1.1434,1.1444,1.1473,1.1486,1.15,1.1521,1.1545,1.1563,1.1578,1.1607,1.1642,1.1666,1.1684,1.1696,1.1702,1.168,1.1698,1.177,1.1782,1.1793,1.1797,1.168,1.168,1.162,1.162,1.1619]}]]